Location: Vista Encantada
(35.1109°N, 106.5681°W)
Time: 08:50:22
(UTC+00:00)

Geosat - Pass Details

Date: 29 October 2020
Orbit: 763 x 766 km, 108.0° (Epoch: 04 December)

Event Time Altitude Azimuth Distance (km) Brightness Sun altitude
Rises 12:19:25 0° 162° (SSE) 3,209 7.6 -14.0°
Reaches altitude 10° 12:21:42 10° 166° (SSE) 2,287 6.7 -13.5°
Maximum altitude 12:26:38 63° 247° (WSW) 850 4.0 -12.5°
Drops below altitude 10° 12:31:36 10° 329° (NNW) 2,302 6.1 -11.5°
Sets 12:33:55 0° 332° (NNW) 3,232 6.9 -11.1°
